Time,TemperatureF,DewpointF,PressureIn,WindDirection,WindDirectionDegrees,WindSpeedMPH,WindSpeedGustMPH,Humidity,HourlyPrecipIn,Conditions,Clouds,dailyrainin,SolarRadiationWatts/m^2,SoftwareType,DateUTC
2013-01-12 00:02:00,40.0,39.0,-100.00,South,169,4.0,9.0,98,0.02,,,0.09,0.000000,,2013-01-12 06:02:00,
2013-01-12 00:12:00,40.0,39.0,-100.00,South,169,4.0,9.0,98,0.02,,,0.09,0.000000,,2013-01-12 06:12:00,
2013-01-12 00:33:00,40.0,39.0,-100.00,South,177,7.0,13.0,98,0.01,,,0.09,0.000000,,2013-01-12 06:33:00,
2013-01-12 00:43:00,40.0,39.0,-100.00,South,177,7.0,13.0,98,0.01,,,0.09,0.000000,,2013-01-12 06:43:00,
2013-01-12 00:53:00,40.0,39.0,-100.00,South,177,7.0,13.0,98,0.01,,,0.09,0.000000,,2013-01-12 06:53:00,
2013-01-12 01:02:00,40.0,39.0,-100.00,South,177,7.0,13.0,98,0.01,,,0.09,0.000000,,2013-01-12 07:02:00,
2013-01-12 01:12:00,40.0,39.0,-100.00,South,177,7.0,13.0,98,0.01,,,0.09,0.000000,,2013-01-12 07:12:00,
2013-01-12 01:32:00,40.0,38.0,-100.00,SSW,211,7.0,15.0,94,0.00,,,0.09,0.000000,,2013-01-12 07:32:00,
2013-01-12 01:42:00,40.0,38.0,-100.00,SSW,211,7.0,15.0,94,0.00,,,0.09,0.000000,,2013-01-12 07:42:00,
2013-01-12 01:53:00,40.0,38.0,-100.00,SSW,211,7.0,15.0,94,0.00,,,0.09,0.000000,,2013-01-12 07:53:00,
2013-01-12 02:02:00,40.0,38.0,-100.00,SSW,211,7.0,15.0,94,0.00,,,0.09,0.000000,,2013-01-12 08:02:00,
2013-01-12 02:12:00,40.0,38.0,-100.00,SSW,211,7.0,15.0,94,0.00,,,0.09,0.000000,,2013-01-12 08:12:00,
2013-01-12 02:42:00,38.0,36.0,-100.00,SSW,199,6.0,14.0,94,0.00,,,0.08,0.000000,,2013-01-12 08:42:00,
2013-01-12 02:53:00,38.0,36.0,-100.00,SSW,199,6.0,14.0,94,0.00,,,0.08,0.000000,,2013-01-12 08:53:00,
2013-01-12 03:02:00,38.0,36.0,-100.00,SSW,199,6.0,14.0,94,0.00,,,0.08,0.000000,,2013-01-12 09:02:00,
2013-01-12 03:12:00,38.0,36.0,-100.00,SSW,199,6.0,14.0,94,0.00,,,0.08,0.000000,,2013-01-12 09:12:00,
2013-01-12 03:32:00,37.0,35.0,-100.00,SSW,202,11.0,22.0,93,0.00,,,0.08,0.000000,,2013-01-12 09:32:00,
2013-01-12 03:43:00,37.0,35.0,-100.00,SSW,202,11.0,22.0,93,0.00,,,0.08,0.000000,,2013-01-12 09:43:00,
2013-01-12 03:53:00,37.0,35.0,-100.00,SSW,202,11.0,22.0,93,0.00,,,0.08,0.000000,,2013-01-12 09:53:00,
2013-01-12 04:02:00,37.0,35.0,-100.00,SSW,202,11.0,22.0,93,0.00,,,0.08,0.000000,,2013-01-12 10:02:00,
2013-01-12 04:12:00,37.0,35.0,-100.00,SSW,202,11.0,22.0,93,0.00,,,0.08,0.000000,,2013-01-12 10:12:00,
2013-01-12 04:43:00,35.0,33.0,-100.00,SW,218,9.0,21.0,91,0.00,,,0.08,0.000000,,2013-01-12 10:43:00,
2013-01-12 04:52:00,35.0,33.0,-100.00,SW,218,9.0,21.0,91,0.00,,,0.08,0.000000,,2013-01-12 10:52:00,
2013-01-12 05:02:00,35.0,33.0,-100.00,SW,218,9.0,21.0,91,0.00,,,0.08,0.000000,,2013-01-12 11:02:00,
2013-01-12 05:12:00,35.0,33.0,-100.00,SW,218,9.0,21.0,91,0.00,,,0.08,0.000000,,2013-01-12 11:12:00,
2013-01-12 05:33:00,27.0,24.0,-100.00,WSW,245,11.0,22.0,88,0.01,,,-99.99,0.000000,,2013-01-12 11:33:00,
2013-01-12 05:43:00,27.0,24.0,-100.00,WSW,245,11.0,22.0,88,0.01,,,-99.99,0.000000,,2013-01-12 11:43:00,
2013-01-12 05:53:00,27.0,24.0,-100.00,WSW,245,11.0,22.0,88,0.01,,,-99.99,0.000000,,2013-01-12 11:53:00,
2013-01-12 06:03:00,27.0,24.0,-100.00,WSW,245,11.0,22.0,88,0.01,,,-99.99,0.000000,,2013-01-12 12:03:00,
2013-01-12 06:12:00,27.0,24.0,-100.00,WSW,245,11.0,22.0,88,0.01,,,-99.99,0.000000,,2013-01-12 12:12:00,
2013-01-12 06:33:00,21.0,16.0,-100.00,SW,229,11.0,25.0,79,0.00,,,0.09,0.000000,,2013-01-12 12:33:00,
2013-01-12 06:43:00,21.0,16.0,-100.00,SW,229,11.0,25.0,79,0.00,,,0.09,0.000000,,2013-01-12 12:43:00,
2013-01-12 06:53:00,21.0,16.0,-100.00,SW,229,11.0,25.0,79,0.00,,,0.09,0.000000,,2013-01-12 12:53:00,
2013-01-12 07:02:00,21.0,16.0,-100.00,SW,229,11.0,25.0,79,0.00,,,0.09,0.000000,,2013-01-12 13:02:00,
2013-01-12 07:12:00,21.0,16.0,-100.00,SW,229,11.0,25.0,79,0.00,,,0.09,0.000000,,2013-01-12 13:12:00,
2013-01-12 07:43:00,19.0,14.0,-100.00,SW,230,10.0,24.0,79,0.00,,,0.09,0.000000,,2013-01-12 13:43:00,
2013-01-12 07:53:00,19.0,14.0,-100.00,SW,230,10.0,24.0,79,0.00,,,0.09,0.000000,,2013-01-12 13:53:00,
2013-01-12 08:02:00,19.0,14.0,-100.00,SW,230,10.0,24.0,79,0.00,,,0.09,0.000000,,2013-01-12 14:02:00,
2013-01-12 08:12:00,19.0,14.0,-100.00,SW,230,10.0,24.0,79,0.00,,,0.09,0.000000,,2013-01-12 14:12:00,
2013-01-12 08:33:00,19.0,14.0,-100.00,SW,226,8.0,21.0,79,0.00,,,0.09,2.000000,,2013-01-12 14:33:00,
2013-01-12 08:43:00,19.0,14.0,-100.00,SW,226,8.0,21.0,79,0.00,,,0.09,2.000000,,2013-01-12 14:43:00,
2013-01-12 08:53:00,19.0,14.0,-100.00,SW,226,8.0,21.0,79,0.00,,,0.09,2.000000,,2013-01-12 14:53:00,
2013-01-12 09:03:00,19.0,14.0,-100.00,SW,226,8.0,21.0,79,0.00,,,0.09,2.000000,,2013-01-12 15:03:00,
2013-01-12 09:12:00,19.0,14.0,-100.00,SW,226,8.0,21.0,79,0.00,,,0.09,2.000000,,2013-01-12 15:12:00,
2013-01-12 09:33:00,17.0,11.0,-100.00,SW,223,9.0,18.0,76,0.00,,,0.08,24.000000,,2013-01-12 15:33:00,
2013-01-12 09:43:00,17.0,11.0,-100.00,SW,223,9.0,18.0,76,0.00,,,0.08,24.000000,,2013-01-12 15:43:00,
2013-01-12 09:53:00,17.0,11.0,-100.00,SW,223,9.0,18.0,76,0.00,,,0.08,24.000000,,2013-01-12 15:53:00,
2013-01-12 10:03:00,17.0,11.0,-100.00,SW,223,9.0,18.0,76,0.00,,,0.08,24.000000,,2013-01-12 16:03:00,
2013-01-12 10:12:00,17.0,11.0,-100.00,SW,223,9.0,18.0,76,0.00,,,0.08,24.000000,,2013-01-12 16:12:00,
2013-01-12 10:33:00,16.0,9.0,-100.00,SW,225,9.0,19.0,73,0.00,,,0.08,82.000000,,2013-01-12 16:33:00,
2013-01-12 10:43:00,16.0,9.0,-100.00,SW,225,9.0,19.0,73,0.00,,,0.08,82.000000,,2013-01-12 16:43:00,
2013-01-12 10:53:00,16.0,9.0,-100.00,SW,225,9.0,19.0,73,0.00,,,0.08,82.000000,,2013-01-12 16:53:00,
2013-01-12 11:02:00,16.0,9.0,-100.00,SW,225,9.0,19.0,73,0.00,,,0.08,82.000000,,2013-01-12 17:02:00,
2013-01-12 11:12:00,16.0,9.0,-100.00,SW,225,9.0,19.0,73,0.00,,,0.08,82.000000,,2013-01-12 17:12:00,
2013-01-12 11:33:00,16.0,8.0,-100.00,SW,232,9.0,18.0,69,0.00,,,0.08,132.000000,,2013-01-12 17:33:00,
2013-01-12 11:43:00,16.0,8.0,-100.00,SW,232,9.0,18.0,69,0.00,,,0.08,132.000000,,2013-01-12 17:43:00,
2013-01-12 11:53:00,16.0,8.0,-100.00,SW,232,9.0,18.0,69,0.00,,,0.08,132.000000,,2013-01-12 17:53:00,
2013-01-12 12:03:00,16.0,8.0,-100.00,SW,232,9.0,18.0,69,0.00,,,0.08,132.000000,,2013-01-12 18:03:00,
2013-01-12 12:12:00,16.0,8.0,-100.00,SW,232,9.0,18.0,69,0.00,,,0.08,132.000000,,2013-01-12 18:12:00,
2013-01-12 12:33:00,15.0,6.0,-100.00,WSW,238,10.0,18.0,68,0.00,,,0.08,158.000000,,2013-01-12 18:33:00,
2013-01-12 12:43:00,15.0,6.0,-100.00,WSW,238,10.0,18.0,68,0.00,,,0.08,158.000000,,2013-01-12 18:43:00,
2013-01-12 12:53:00,15.0,6.0,-100.00,WSW,238,10.0,18.0,68,0.00,,,0.08,158.000000,,2013-01-12 18:53:00,
2013-01-12 13:03:00,15.0,6.0,-100.00,WSW,238,10.0,18.0,68,0.00,,,0.08,158.000000,,2013-01-12 19:03:00,
2013-01-12 13:12:00,15.0,6.0,-100.00,WSW,238,10.0,18.0,68,0.00,,,0.08,158.000000,,2013-01-12 19:12:00,
2013-01-12 13:43:00,15.0,7.0,-100.00,SW,230,9.0,18.0,70,0.00,,,0.08,159.000000,,2013-01-12 19:43:00,
2013-01-12 13:53:00,15.0,7.0,-100.00,SW,230,9.0,18.0,70,0.00,,,0.08,159.000000,,2013-01-12 19:53:00,
2013-01-12 14:03:00,15.0,7.0,-100.00,SW,230,9.0,18.0,70,0.00,,,0.08,159.000000,,2013-01-12 20:03:00,
2013-01-12 14:12:00,15.0,7.0,-100.00,SW,230,9.0,18.0,70,0.00,,,0.08,159.000000,,2013-01-12 20:12:00,
2013-01-12 14:33:00,14.0,5.0,-100.00,SW,233,7.0,17.0,66,0.00,,,0.08,108.000000,,2013-01-12 20:33:00,
2013-01-12 14:43:00,14.0,5.0,-100.00,SW,233,7.0,17.0,66,0.00,,,0.08,108.000000,,2013-01-12 20:43:00,
2013-01-12 14:53:00,14.0,5.0,-100.00,SW,233,7.0,17.0,66,0.00,,,0.08,108.000000,,2013-01-12 20:53:00,
2013-01-12 15:03:00,14.0,5.0,-100.00,SW,233,7.0,17.0,66,0.00,,,0.08,108.000000,,2013-01-12 21:03:00,
2013-01-12 15:12:00,14.0,5.0,-100.00,SW,233,7.0,17.0,66,0.00,,,0.08,108.000000,,2013-01-12 21:12:00,
2013-01-12 15:33:00,14.0,4.0,-100.00,WSW,239,8.0,15.0,64,0.00,,,0.07,76.000000,,2013-01-12 21:33:00,
2013-01-12 15:43:00,14.0,4.0,-100.00,WSW,239,8.0,15.0,64,0.00,,,0.07,76.000000,,2013-01-12 21:43:00,
2013-01-12 15:53:00,14.0,4.0,-100.00,WSW,239,8.0,15.0,64,0.00,,,0.07,76.000000,,2013-01-12 21:53:00,
2013-01-12 16:03:00,14.0,4.0,-100.00,WSW,239,8.0,15.0,64,0.00,,,0.07,76.000000,,2013-01-12 22:03:00,
2013-01-12 16:12:00,14.0,4.0,-100.00,WSW,239,8.0,15.0,64,0.00,,,0.07,76.000000,,2013-01-12 22:12:00,
2013-01-12 16:33:00,13.0,3.0,-100.00,WSW,242,7.0,17.0,65,0.00,,,0.07,42.000000,,2013-01-12 22:33:00,
2013-01-12 16:43:00,13.0,3.0,-100.00,WSW,242,7.0,17.0,65,0.00,,,0.07,42.000000,,2013-01-12 22:43:00,
2013-01-12 16:53:00,13.0,3.0,-100.00,WSW,242,7.0,17.0,65,0.00,,,0.07,42.000000,,2013-01-12 22:53:00,
2013-01-12 17:03:00,13.0,3.0,-100.00,WSW,242,7.0,17.0,65,0.00,,,0.07,42.000000,,2013-01-12 23:03:00,
2013-01-12 17:12:00,13.0,3.0,-100.00,WSW,242,7.0,17.0,65,0.00,,,0.07,42.000000,,2013-01-12 23:12:00,
2013-01-12 17:43:00,12.0,4.0,-100.00,SW,233,4.0,13.0,71,0.00,,,0.06,6.000000,,2013-01-12 23:43:00,
2013-01-12 17:53:00,12.0,4.0,-100.00,SW,233,4.0,13.0,71,0.00,,,0.06,6.000000,,2013-01-12 23:53:00,
2013-01-12 18:03:00,12.0,4.0,-100.00,SW,233,4.0,13.0,71,0.00,,,0.06,6.000000,,2013-01-13 00:03:00,
2013-01-12 18:12:00,12.0,4.0,-100.00,SW,233,4.0,13.0,71,0.00,,,0.06,6.000000,,2013-01-13 00:12:00,
2013-01-12 18:33:00,12.0,3.0,-100.00,SW,225,4.0,11.0,65,0.00,,,0.06,0.000000,,2013-01-13 00:33:00,
2013-01-12 18:43:00,12.0,3.0,-100.00,SW,225,4.0,11.0,65,0.00,,,0.06,0.000000,,2013-01-13 00:43:00,
2013-01-12 18:53:00,12.0,3.0,-100.00,SW,225,4.0,11.0,65,0.00,,,0.06,0.000000,,2013-01-13 00:53:00,
2013-01-12 19:03:00,12.0,3.0,-100.00,SW,225,4.0,11.0,65,0.00,,,0.06,0.000000,,2013-01-13 01:03:00,
2013-01-12 19:12:00,12.0,3.0,-100.00,SW,225,4.0,11.0,65,0.00,,,0.06,0.000000,,2013-01-13 01:12:00,
2013-01-12 19:43:00,11.0,3.0,-100.00,WSW,240,6.0,10.0,70,0.00,,,0.05,0.000000,,2013-01-13 01:43:00,
2013-01-12 19:53:00,11.0,3.0,-100.00,WSW,240,6.0,10.0,70,0.00,,,0.05,0.000000,,2013-01-13 01:53:00,
2013-01-12 20:02:00,11.0,3.0,-100.00,WSW,240,6.0,10.0,70,0.00,,,0.05,0.000000,,2013-01-13 02:02:00,
2013-01-12 20:12:00,11.0,3.0,-100.00,WSW,240,6.0,10.0,70,0.00,,,0.05,0.000000,,2013-01-13 02:12:00,
2013-01-12 20:43:00,10.0,3.0,-100.00,WSW,249,4.0,9.0,71,0.00,,,0.05,0.000000,,2013-01-13 02:43:00,
2013-01-12 20:53:00,10.0,3.0,-100.00,WSW,249,4.0,9.0,71,0.00,,,0.05,0.000000,,2013-01-13 02:53:00,
2013-01-12 21:02:00,10.0,3.0,-100.00,WSW,249,4.0,9.0,71,0.00,,,0.05,0.000000,,2013-01-13 03:02:00,
2013-01-12 21:12:00,10.0,3.0,-100.00,WSW,249,4.0,9.0,71,0.00,,,0.05,0.000000,,2013-01-13 03:12:00,
2013-01-12 21:33:00,10.0,3.0,-100.00,WSW,255,5.0,11.0,71,0.00,,,0.04,0.000000,,2013-01-13 03:33:00,
2013-01-12 21:43:00,10.0,3.0,-100.00,WSW,255,5.0,11.0,71,0.00,,,0.04,0.000000,,2013-01-13 03:43:00,
2013-01-12 21:53:00,10.0,3.0,-100.00,WSW,255,5.0,11.0,71,0.00,,,0.04,0.000000,,2013-01-13 03:53:00,
2013-01-12 22:02:00,10.0,3.0,-100.00,WSW,255,5.0,11.0,71,0.00,,,0.04,0.000000,,2013-01-13 04:02:00,
2013-01-12 22:12:00,10.0,3.0,-100.00,WSW,255,5.0,11.0,71,0.00,,,0.04,0.000000,,2013-01-13 04:12:00,
2013-01-12 22:33:00,10.0,3.0,-100.00,West,265,4.0,10.0,72,0.00,,,0.04,0.000000,,2013-01-13 04:33:00,
2013-01-12 22:43:00,10.0,3.0,-100.00,West,265,4.0,10.0,72,0.00,,,0.04,0.000000,,2013-01-13 04:43:00,
2013-01-12 22:53:00,10.0,3.0,-100.00,West,265,4.0,10.0,72,0.00,,,0.04,0.000000,,2013-01-13 04:53:00,
2013-01-12 23:03:00,10.0,3.0,-100.00,West,265,4.0,10.0,72,0.00,,,0.04,0.000000,,2013-01-13 05:03:00,
2013-01-12 23:12:00,10.0,3.0,-100.00,West,265,4.0,10.0,72,0.00,,,0.04,0.000000,,2013-01-13 05:12:00,
2013-01-12 23:33:00,10.0,2.0,-100.00,WNW,285,4.0,10.0,70,0.00,,,0.02,0.000000,,2013-01-13 05:33:00,
2013-01-12 23:42:00,10.0,2.0,-100.00,WNW,285,4.0,10.0,70,0.00,,,0.02,0.000000,,2013-01-13 05:42:00,
2013-01-12 23:53:00,10.0,2.0,-100.00,WNW,285,4.0,10.0,70,0.00,,,0.02,0.000000,,2013-01-13 05:53:00,